Retour au catalogue

STARLINK-30474

ActifCommunicationsVLEO
NORAD 57897·PAYLOAD·🇺🇸 United States

Lancé Sep 20, 2023 depuis Cape Canaveral Space Force Station

Loading…

Prochains Passages (prochaines 24 heures)

TLE

FraisSource: CelesTrak SupGP

Époque: Sep 14, 2026, 21:15 UTC

1 57897C 23146G   26257.88590278 -.00074268  00000+0 -26898-2 0  2571
2 57897  43.0027 325.7330 0001521 269.4277   5.7813 15.27617538    13

Suivez STARLINK-30474 en temps réel avec AllMySat

Download on the App Store